CZ-6A DEB, 56665

Orbit data source: Space-Track

CZ-6A DEB, 56665 is space debris in SSO originally from a launch on Fri, 11 Nov 2022 UTC launched from the Taiyaun Space Center, China (TSC). Debris objects in space refer to the collection of defunct objects orbiting the Earth. Examples of debris include non-operational satellites, rocket bodies, and fragments generated from explosions, collisions, or faulty payload assembly.

Loading next visibility...
Identifier
56665, 2022-151AGR
Orbit
SSO
Country
Flag of CNCN / PRC
Related business
Manufacturer
SAST
Mission
Spacecraft
Bus & Motor
Unknown
Mass
Unknown
Launch date (UTC)
2022-11-11 (4 years ago)
Launch vehicle
Unknown
Launch site
Taiyaun Space Center, China (TSC)
Object type
Payload
Rocket body
Debris
Shape & HBR
Unknown shape, 0.1 m
Radar Cross Section
Small (<0.1 m²)

Expand to show TLE details & history
Last TLE update: 2 days ago

TLE from 2 days ago
0 CZ-6A DEB
1 56665U 22151AGR 26171.21240943  .00002014  00000-0  39191-3 0  9994
2 56665  98.6995 257.4502 0122036 248.0046 110.8149 14.59715188172743
Epoch: 2026-06-20T05:05Z
TLE epoch observation values (Epoch: 2026-06-20T05:05:52.174Z)
Latitude
-0.00009°
Longitude
-87.44745°
Altitude
728.653 km
Speed
7.474 km/s
True Right ascension
17h 09m 48s
True Declination
0° 00' 00"
Sunlit
Object was in full shadow at epoch
Visualization orbit readout
Latitude
Unknown
Longitude
Unknown
Altitude
Unknown
Speed
Unknown
Apparent Right ascension
Unknown
Apparent Declination
Unknown
Sunlit
N/A
Visualization observer readout
Local Sidereal Time
21:51:57
Azimuth
Unknown
Elevation
Unknown
Doppler factor
Unknown
Orbital elements
Apogee altitude
777.47 km
Perigee altitude
604.927 km
Semi-major axis
7,069.335 km
Eccentricity
0.0122
Inclination
98.6995°
RAAN
257.4502°
Arg. of periapsis
248.0046°
True anomaly
112.1149°
Mean anomaly
110.8149°
Eccentric anomaly
111.46562°
Mean motion
3.65153 °/min
Orbital period
98.59 mins
BSTAR
0.00039191
Loading maneuver chart data...
Computing Atmospheric mass density...
Loading historical data...
Loading historical data...
Loading historical data...
Loading historical data...
Loading historical data...
Loading historical data...
Loading historical data...

Documentation

Showing up to 5 results
|